LEAS Weather Reports


Display with metric or nautical units.
time (UTC)temp
F
wind
direction
speed
MPH
gust
MPH
rain 1hr
in
rain 24hr
in
rain mn
in
humidity
%
barometer
mb
20260510221504 52 160 5.0 0.0 0.00 0.00 0.00 100 1011.0
20260510220005 52 170 3.0 0.0 0.00 0.00 0.00 93 1011.0
20260510213004 52 160 3.0 0.0 0.00 0.00 0.00 100 1010.0
20260510211503 52 160 3.0 0.0 0.00 0.00 0.00 100 1010.0
20260510203005 55 300 5.0 0.0 0.00 0.00 0.00 87 1010.0
20260510201504 55 300 5.0 0.0 0.00 0.00 0.00 87 1010.0
20260510200004 55 310 6.0 0.0 0.00 0.00 0.00 93 1010.0
20260510191505 55 300 7.0 0.0 0.00 0.00 0.00 87 1010.0
20260510190004 61 230 5.0 0.0 0.00 0.00 0.00 72 1010.0
20260510184504 61 230 5.0 0.0 0.00 0.00 0.00 72 1010.0
20260510183005 59 250 7.0 0.0 0.00 0.00 0.00 82 1010.0
20260510180005 59 230 6.0 0.0 0.00 0.00 0.00 76 1009.0
20260510174504 59 230 6.0 0.0 0.00 0.00 0.00 76 1009.0
20260510173004 59 220 6.0 0.0 0.00 0.00 0.00 76 1009.0
20260510171503 59 220 6.0 0.0 0.00 0.00 0.00 76 1009.0
20260510170004 57 210 9.0 0.0 0.00 0.00 0.00 87 1009.0
20260510163004 59 210 8.0 0.0 0.00 0.00 0.00 87 1009.0
20260510161503 59 210 8.0 0.0 0.00 0.00 0.00 87 1009.0
20260510160004 55 0 1.0 0.0 0.00 0.00 0.00 93 1009.0
20260510154504 55 0 1.0 0.0 0.00 0.00 0.00 93 1009.0
20260510153004 54 180 6.0 0.0 0.00 0.00 0.00 93 1010.0
20260510151504 54 180 6.0 0.0 0.00 0.00 0.00 93 1010.0
20260510150005 55 220 12.0 0.0 0.00 0.00 0.00 87 1010.0
20260510144504 57 0 5.0 0.0 0.00 0.00 0.00 100 1009.0
20260510143004 55 40 9.0 0.0 0.00 0.00 0.00 93 1008.0
20260510123005 59 60 9.0 0.0 0.00 0.00 0.00 87 1008.0
20260510120004 59 50 9.0 0.0 0.00 0.00 0.00 87 1008.0
20260510113005 59 50 7.0 0.0 0.00 0.00 0.00 87 1008.0
20260510111504 63 50 6.0 0.0 0.00 0.00 0.00 77 1008.0
20260510110004 63 40 7.0 0.0 0.00 0.00 0.00 77 1008.0
20260510094504 63 70 5.0 0.0 0.00 0.00 0.00 67 1008.0
20260510093005 63 110 5.0 0.0 0.00 0.00 0.00 72 1008.0
20260510091504 63 110 5.0 0.0 0.00 0.00 0.00 72 1008.0
20260510080005 57 0 2.0 0.0 0.00 0.00 0.00 76 1008.0
20260510074504 57 0 2.0 0.0 0.00 0.00 0.00 76 1008.0
20260510070004 57 170 3.0 0.0 0.00 0.00 0.00 76 1007.0
20260510064503 57 170 3.0 0.0 0.00 0.00 0.00 76 1007.0
20260510063004 54 190 3.0 0.0 0.00 0.00 0.00 81 1007.0
20260510061503 54 190 3.0 0.0 0.00 0.00 0.00 81 1007.0
20260510060004 54 0 2.0 0.0 0.00 0.00 0.00 81 1007.0
20260510054504 54 0 2.0 0.0 0.00 0.00 0.00 81 1007.0
20260510044503 54 260 5.0 0.0 0.00 0.00 0.00 81 1007.0
20260510043004 54 0 2.0 0.0 0.00 0.00 0.00 81 1007.0
20260510041504 54 0 2.0 0.0 0.00 0.00 0.00 81 1007.0
20260510040004 55 220 7.0 0.0 0.00 0.00 0.00 76 1007.0
20260510034504 55 220 7.0 0.0 0.00 0.00 0.00 76 1007.0
20260510033004 54 230 8.0 0.0 0.00 0.00 0.00 87 1007.0
20260510031503 54 230 8.0 0.0 0.00 0.00 0.00 87 1007.0
20260510030004 54 230 8.0 0.0 0.00 0.00 0.00 87 1007.0
20260510024504 54 230 8.0 0.0 0.00 0.00 0.00 87 1007.0
20260510023005 54 220 7.0 0.0 0.00 0.00 0.00 87 1007.0
20260510021504 54 220 7.0 0.0 0.00 0.00 0.00 87 1007.0
20260510014504 54 240 6.0 0.0 0.00 0.00 0.00 87 1007.0
20260510013004 54 210 5.0 0.0 0.00 0.00 0.00 93 1007.0
20260510011504 54 210 5.0 0.0 0.00 0.00 0.00 93 1007.0
20260510010004 52 170 5.0 0.0 0.00 0.00 0.00 93 1007.0
20260510004503 52 170 5.0 0.0 0.00 0.00 0.00 93 1007.0
20260510003005 54 170 3.0 0.0 0.00 0.00 0.00 93 1007.0
20260510001503 54 170 3.0 0.0 0.00 0.00 0.00 93 1007.0
20260510000004 54 130 3.0 0.0 0.00 0.00 0.00 100 1007.0
20260509234504 54 130 3.0 0.0 0.00 0.00 0.00 100 1007.0
20260509233004 54 150 6.0 0.0 0.00 0.00 0.00 93 1007.0
20260509230005 55 0 1.0 0.0 0.00 0.00 0.00 100 1007.0